Time,TemperatureF,DewpointF,PressureIn,WindDirection,WindDirectionDegrees,WindSpeedMPH,WindSpeedGustMPH,Humidity,HourlyPrecipIn,Conditions,Clouds,dailyrainin,SolarRadiationWatts/m^2,SoftwareType,DateUTC
2013-05-06 00:03:00,51.2,45.2,30.04,NNW,340,0.0,0.0,80,0.00,,,0.00,0,Wunderground v.1.15,2013-05-06 05:03:00,
2013-05-06 00:08:00,51.0,45.0,30.04,NNW,340,0.0,0.0,80,0.00,,,0.00,0,Wunderground v.1.15,2013-05-06 05:08:00,
2013-05-06 00:13:00,50.7,45.1,30.04,NNW,340,0.0,0.0,81,0.00,,,0.00,0,Wunderground v.1.15,2013-05-06 05:13:00,
2013-05-06 00:18:00,50.6,45.0,30.04,NNW,340,0.0,0.0,81,0.00,,,0.00,0,Wunderground v.1.15,2013-05-06 05:18:00,
2013-05-06 00:23:00,50.4,45.1,30.04,NNW,340,0.0,0.0,82,0.00,,,0.00,0,Wunderground v.1.15,2013-05-06 05:23:00,
2013-05-06 00:28:00,50.4,45.1,30.04,NNW,340,0.0,0.0,82,0.00,,,0.00,0,Wunderground v.1.15,2013-05-06 05:28:00,
2013-05-06 00:34:00,50.2,44.9,30.04,NNW,340,0.0,0.0,82,0.00,,,0.00,0,Wunderground v.1.15,2013-05-06 05:34:00,
2013-05-06 00:39:00,50.1,44.8,30.04,NNW,340,0.0,0.0,82,0.00,,,0.00,0,Wunderground v.1.15,2013-05-06 05:39:00,
2013-05-06 00:44:00,50.0,44.7,30.04,NNW,340,0.0,0.0,82,0.00,,,0.00,0,Wunderground v.1.15,2013-05-06 05:44:00,
2013-05-06 00:49:00,50.2,45.2,30.04,NNW,340,2.0,2.0,83,0.00,,,0.00,0,Wunderground v.1.15,2013-05-06 05:49:00,
2013-05-06 00:54:00,50.6,45.3,30.04,NNW,340,1.0,4.0,82,0.00,,,0.00,0,Wunderground v.1.15,2013-05-06 05:54:00,
2013-05-06 00:59:00,50.9,45.3,30.04,NNW,342,2.0,4.0,81,0.00,,,0.00,0,Wunderground v.1.15,2013-05-06 05:59:00,
2013-05-06 01:04:00,51.3,45.3,30.04,North,355,2.0,5.0,80,0.00,,,0.00,0,Wunderground v.1.15,2013-05-06 06:04:00,
2013-05-06 01:09:00,51.6,45.0,30.03,North,355,0.0,5.0,78,0.00,,,0.00,0,Wunderground v.1.15,2013-05-06 06:09:00,
2013-05-06 01:14:00,51.7,45.1,30.04,North,355,0.0,4.0,78,0.00,,,0.00,0,Wunderground v.1.15,2013-05-06 06:14:00,
2013-05-06 01:19:00,51.7,44.7,30.04,North,355,0.0,4.0,77,0.00,,,0.00,0,Wunderground v.1.15,2013-05-06 06:19:00,
2013-05-06 01:24:00,51.8,44.8,30.04,North,5,2.0,4.0,77,0.00,,,0.00,0,Wunderground v.1.15,2013-05-06 06:24:00,
2013-05-06 01:29:00,51.8,44.5,30.04,North,11,2.0,4.0,76,0.00,,,0.00,0,Wunderground v.1.15,2013-05-06 06:29:00,
2013-05-06 01:34:00,51.8,44.5,30.04,North,11,0.0,4.0,76,0.00,,,0.00,0,Wunderground v.1.15,2013-05-06 06:34:00,
2013-05-06 01:39:00,51.9,44.6,30.04,North,11,0.0,1.0,76,0.00,,,0.00,0,Wunderground v.1.15,2013-05-06 06:39:00,
2013-05-06 01:44:00,51.9,44.6,30.04,North,11,0.0,2.0,76,0.00,,,0.00,0,Wunderground v.1.15,2013-05-06 06:44:00,
2013-05-06 01:50:00,51.6,43.9,30.04,North,11,0.0,0.0,75,0.00,,,0.00,0,Wunderground v.1.15,2013-05-06 06:50:00,
2013-05-06 01:55:00,51.4,44.1,30.04,North,11,2.0,3.0,76,0.00,,,0.00,0,Wunderground v.1.15,2013-05-06 06:55:00,
2013-05-06 02:00:00,51.2,43.9,30.04,North,11,0.0,0.0,76,0.00,,,0.00,0,Wunderground v.1.15,2013-05-06 07:00:00,
2013-05-06 02:05:00,51.2,44.2,30.04,North,11,0.0,1.0,77,0.00,,,0.00,0,Wunderground v.1.15,2013-05-06 07:05:00,
2013-05-06 02:10:00,51.0,43.7,30.04,North,11,1.0,1.0,76,0.00,,,0.00,0,Wunderground v.1.15,2013-05-06 07:10:00,
2013-05-06 02:15:00,50.6,43.7,30.04,North,11,0.0,1.0,77,0.00,,,0.00,0,Wunderground v.1.15,2013-05-06 07:15:00,
2013-05-06 02:20:00,50.3,43.4,30.03,North,11,0.0,0.0,77,0.00,,,0.00,0,Wunderground v.1.15,2013-05-06 07:20:00,
2013-05-06 02:25:00,50.0,43.4,30.03,North,11,0.0,0.0,78,0.00,,,0.00,0,Wunderground v.1.15,2013-05-06 07:25:00,
2013-05-06 02:30:00,49.8,43.5,30.03,North,11,0.0,0.0,79,0.00,,,0.00,0,Wunderground v.1.15,2013-05-06 07:30:00,
2013-05-06 02:35:00,49.5,43.3,30.03,North,11,0.0,0.0,79,0.00,,,0.00,0,Wunderground v.1.15,2013-05-06 07:35:00,
2013-05-06 02:40:00,49.0,43.1,30.03,North,11,0.0,0.0,80,0.00,,,0.00,0,Wunderground v.1.15,2013-05-06 07:40:00,
2013-05-06 02:45:00,48.8,42.9,30.03,North,11,0.0,0.0,80,0.00,,,0.00,0,Wunderground v.1.15,2013-05-06 07:45:00,
2013-05-06 02:50:00,48.6,43.0,30.03,North,11,0.0,0.0,81,0.00,,,0.00,0,Wunderground v.1.15,2013-05-06 07:50:00,
2013-05-06 02:55:00,48.4,42.8,30.03,North,11,0.0,0.0,81,0.00,,,0.00,0,Wunderground v.1.15,2013-05-06 07:55:00,
2013-05-06 03:00:00,48.0,42.4,30.03,North,11,0.0,0.0,81,0.00,,,0.00,0,Wunderground v.1.15,2013-05-06 08:00:00,
2013-05-06 03:06:00,47.7,42.5,30.03,North,11,0.0,0.0,82,0.00,,,0.00,0,Wunderground v.1.15,2013-05-06 08:06:00,
2013-05-06 03:11:00,47.2,42.0,30.03,North,11,0.0,0.0,82,0.00,,,0.00,0,Wunderground v.1.15,2013-05-06 08:11:00,
2013-05-06 03:16:00,47.0,42.1,30.03,North,11,0.0,0.0,83,0.00,,,0.00,0,Wunderground v.1.15,2013-05-06 08:16:00,
2013-05-06 03:21:00,46.7,41.8,30.03,North,11,0.0,0.0,83,0.00,,,0.00,0,Wunderground v.1.15,2013-05-06 08:21:00,
2013-05-06 03:26:00,46.6,42.0,30.03,North,11,0.0,0.0,84,0.00,,,0.00,0,Wunderground v.1.15,2013-05-06 08:26:00,
2013-05-06 03:31:00,46.4,41.8,30.03,North,11,0.0,0.0,84,0.00,,,0.00,0,Wunderground v.1.15,2013-05-06 08:31:00,
2013-05-06 03:36:00,46.0,41.4,30.03,North,11,0.0,0.0,84,0.00,,,0.00,0,Wunderground v.1.15,2013-05-06 08:36:00,
2013-05-06 03:41:00,45.7,41.1,30.02,North,11,0.0,0.0,84,0.00,,,0.00,0,Wunderground v.1.15,2013-05-06 08:41:00,
2013-05-06 03:46:00,45.4,41.2,30.02,North,11,0.0,0.0,85,0.00,,,0.00,0,Wunderground v.1.15,2013-05-06 08:46:00,
2013-05-06 03:51:00,45.3,41.1,30.03,North,11,0.0,0.0,85,0.00,,,0.00,0,Wunderground v.1.15,2013-05-06 08:51:00,
2013-05-06 03:56:00,45.2,41.3,30.03,North,11,0.0,0.0,86,0.00,,,0.00,0,Wunderground v.1.15,2013-05-06 08:56:00,
2013-05-06 04:01:00,45.1,41.2,30.03,North,11,0.0,0.0,86,0.00,,,0.00,0,Wunderground v.1.15,2013-05-06 09:01:00,
2013-05-06 04:07:00,45.0,41.1,30.03,North,11,0.0,0.0,86,0.00,,,0.00,0,Wunderground v.1.15,2013-05-06 09:07:00,
2013-05-06 04:12:00,44.9,41.0,30.03,North,11,0.0,0.0,86,0.00,,,0.00,0,Wunderground v.1.15,2013-05-06 09:12:00,
2013-05-06 04:17:00,44.9,41.3,30.03,North,11,0.0,0.0,87,0.00,,,0.00,0,Wunderground v.1.15,2013-05-06 09:17:00,
2013-05-06 04:22:00,45.1,41.5,30.03,North,11,2.0,3.0,87,0.00,,,0.00,0,Wunderground v.1.15,2013-05-06 09:22:00,
2013-05-06 04:27:00,45.2,41.6,30.03,North,11,1.0,3.0,87,0.00,,,0.00,0,Wunderground v.1.15,2013-05-06 09:27:00,
2013-05-06 04:32:00,45.4,41.8,30.03,North,11,0.0,2.0,87,0.00,,,0.00,0,Wunderground v.1.15,2013-05-06 09:32:00,
2013-05-06 04:37:00,45.5,41.9,30.03,North,11,0.0,2.0,87,0.00,,,0.00,0,Wunderground v.1.15,2013-05-06 09:37:00,
2013-05-06 04:42:00,45.4,41.5,30.03,North,11,2.0,3.0,86,0.00,,,0.00,0,Wunderground v.1.15,2013-05-06 09:42:00,
2013-05-06 04:47:00,45.1,41.2,30.04,North,11,0.0,3.0,86,0.00,,,0.00,0,Wunderground v.1.15,2013-05-06 09:47:00,
2013-05-06 04:53:00,45.0,41.1,30.04,North,11,0.0,2.0,86,0.00,,,0.00,0,Wunderground v.1.15,2013-05-06 09:53:00,
2013-05-06 04:58:00,45.1,41.5,30.04,North,11,0.0,2.0,87,0.00,,,0.00,0,Wunderground v.1.15,2013-05-06 09:58:00,
2013-05-06 05:03:00,45.2,41.6,30.04,North,11,0.0,0.0,87,0.00,,,0.00,0,Wunderground v.1.15,2013-05-06 10:03:00,
2013-05-06 05:08:00,45.2,41.6,30.04,North,11,0.0,0.0,87,0.00,,,0.00,0,Wunderground v.1.15,2013-05-06 10:08:00,
2013-05-06 05:13:00,45.3,41.7,30.05,North,11,0.0,0.0,87,0.00,,,0.00,0,Wunderground v.1.15,2013-05-06 10:13:00,
2013-05-06 05:18:00,45.2,41.3,30.04,North,11,0.0,0.0,86,0.00,,,0.00,0,Wunderground v.1.15,2013-05-06 10:18:00,
2013-05-06 05:23:00,44.9,41.0,30.05,North,11,0.0,0.0,86,0.00,,,0.00,0,Wunderground v.1.15,2013-05-06 10:23:00,
2013-05-06 05:28:00,44.9,41.3,30.04,North,11,0.0,0.0,87,0.00,,,0.00,0,Wunderground v.1.15,2013-05-06 10:28:00,
2013-05-06 05:33:00,44.8,41.2,30.05,North,11,0.0,0.0,87,0.00,,,0.00,0,Wunderground v.1.15,2013-05-06 10:33:00,
2013-05-06 05:38:00,44.6,41.0,30.05,North,11,0.0,0.0,87,0.00,,,0.00,0,Wunderground v.1.15,2013-05-06 10:38:00,
2013-05-06 05:44:00,44.5,40.9,30.05,North,11,0.0,0.0,87,0.00,,,0.00,0,Wunderground v.1.15,2013-05-06 10:44:00,
2013-05-06 05:49:00,44.4,40.8,30.05,North,11,0.0,0.0,87,0.00,,,0.00,0,Wunderground v.1.15,2013-05-06 10:49:00,
2013-05-06 05:54:00,44.3,40.7,30.05,North,11,0.0,0.0,87,0.00,,,0.00,5,Wunderground v.1.15,2013-05-06 10:54:00,
2013-05-06 05:59:00,44.2,40.6,30.05,North,11,0.0,0.0,87,0.00,,,0.00,9,Wunderground v.1.15,2013-05-06 10:59:00,
2013-05-06 06:04:00,44.2,40.6,30.05,North,11,0.0,0.0,87,0.00,,,0.00,12,Wunderground v.1.15,2013-05-06 11:04:00,
2013-05-06 06:09:00,44.2,40.9,30.05,North,11,0.0,0.0,88,0.00,,,0.00,14,Wunderground v.1.15,2013-05-06 11:09:00,
2013-05-06 06:14:00,44.3,41.0,30.05,North,11,0.0,0.0,88,0.00,,,0.00,19,Wunderground v.1.15,2013-05-06 11:14:00,
2013-05-06 06:19:00,44.3,41.0,30.05,North,11,0.0,0.0,88,0.00,,,0.00,33,Wunderground v.1.15,2013-05-06 11:19:00,
2013-05-06 06:24:00,44.4,41.1,30.06,North,11,0.0,0.0,88,0.00,,,0.00,35,Wunderground v.1.15,2013-05-06 11:24:00,
2013-05-06 06:29:00,44.5,41.2,30.05,North,11,0.0,0.0,88,0.00,,,0.00,51,Wunderground v.1.15,2013-05-06 11:29:00,
2013-05-06 06:34:00,44.6,41.0,30.05,North,11,0.0,0.0,87,0.00,,,0.00,67,Wunderground v.1.15,2013-05-06 11:34:00,
2013-05-06 06:39:00,44.8,41.2,30.05,North,11,0.0,0.0,87,0.00,,,0.00,76,Wunderground v.1.15,2013-05-06 11:39:00,
2013-05-06 06:44:00,45.0,41.4,30.05,North,11,2.0,3.0,87,0.00,,,0.00,90,Wunderground v.1.15,2013-05-06 11:44:00,
2013-05-06 06:50:00,45.2,41.6,30.06,North,11,1.0,1.0,87,0.00,,,0.00,105,Wunderground v.1.15,2013-05-06 11:50:00,
2013-05-06 06:55:00,45.4,41.8,30.06,North,11,0.0,1.0,87,0.00,,,0.00,120,Wunderground v.1.15,2013-05-06 11:55:00,
2013-05-06 07:00:00,45.7,42.1,30.06,North,11,0.0,0.0,87,0.00,,,0.00,134,Wunderground v.1.15,2013-05-06 12:00:00,
2013-05-06 07:05:00,46.0,42.3,30.06,North,11,0.0,0.0,87,0.00,,,0.00,144,Wunderground v.1.15,2013-05-06 12:05:00,
2013-05-06 07:10:00,46.2,42.2,30.06,North,11,1.0,3.0,86,0.00,,,0.00,169,Wunderground v.1.15,2013-05-06 12:10:00,
2013-05-06 07:15:00,46.5,42.5,30.06,NNE,12,0.0,3.0,86,0.00,,,0.00,186,Wunderground v.1.15,2013-05-06 12:15:00,
2013-05-06 07:20:00,46.8,42.5,30.07,North,11,2.0,4.0,85,0.00,,,0.00,204,Wunderground v.1.15,2013-05-06 12:20:00,
2013-05-06 07:25:00,47.0,42.7,30.07,North,11,1.0,4.0,85,0.00,,,0.00,220,Wunderground v.1.15,2013-05-06 12:25:00,
2013-05-06 07:30:00,47.3,42.7,30.07,North,11,0.0,1.0,84,0.00,,,0.00,237,Wunderground v.1.15,2013-05-06 12:30:00,
2013-05-06 07:36:00,47.6,43.0,30.07,North,11,2.0,4.0,84,0.00,,,0.00,246,Wunderground v.1.15,2013-05-06 12:36:00,
2013-05-06 07:41:00,47.9,43.0,30.07,North,11,0.0,1.0,83,0.00,,,0.00,269,Wunderground v.1.15,2013-05-06 12:41:00,
2013-05-06 07:46:00,48.2,43.9,30.07,North,11,0.0,3.0,85,0.00,,,0.00,294,Wunderground v.1.15,2013-05-06 12:46:00,
2013-05-06 07:51:00,48.5,43.3,30.07,North,11,0.0,0.0,82,0.00,,,0.00,309,Wunderground v.1.15,2013-05-06 12:51:00,
2013-05-06 07:56:00,49.2,43.6,30.07,North,11,0.0,0.0,81,0.00,,,0.00,334,Wunderground v.1.15,2013-05-06 12:56:00,
2013-05-06 08:01:00,49.7,43.5,30.07,North,11,0.0,0.0,79,0.00,,,0.00,346,Wunderground v.1.15,2013-05-06 13:01:00,
2013-05-06 08:06:00,50.1,43.5,30.07,North,11,0.0,3.0,78,0.00,,,0.00,353,Wunderground v.1.15,2013-05-06 13:06:00,
2013-05-06 08:11:00,50.5,43.6,30.07,North,11,0.0,1.0,77,0.00,,,0.00,367,Wunderground v.1.15,2013-05-06 13:11:00,
2013-05-06 08:16:00,51.0,43.7,30.07,North,11,0.0,2.0,76,0.00,,,0.00,353,Wunderground v.1.15,2013-05-06 13:16:00,
2013-05-06 08:21:00,51.2,43.5,30.07,North,11,0.0,3.0,75,0.00,,,0.00,306,Wunderground v.1.15,2013-05-06 13:21:00,
2013-05-06 08:26:00,51.2,43.2,30.07,North,11,4.0,6.0,74,0.00,,,0.00,294,Wunderground v.1.15,2013-05-06 13:26:00,
2013-05-06 08:32:00,51.2,43.2,30.07,NNE,17,0.0,4.0,74,0.00,,,0.00,422,Wunderground v.1.15,2013-05-06 13:32:00,
2013-05-06 08:37:00,51.4,43.4,30.07,NNE,19,0.0,4.0,74,0.00,,,0.00,418,Wunderground v.1.15,2013-05-06 13:37:00,
2013-05-06 08:42:00,51.7,43.3,30.07,NNE,26,2.0,4.0,73,0.00,,,0.00,446,Wunderground v.1.15,2013-05-06 13:42:00,
2013-05-06 08:47:00,51.9,43.2,30.07,NNE,16,3.0,5.0,72,0.00,,,0.00,464,Wunderground v.1.15,2013-05-06 13:47:00,
2013-05-06 08:52:00,52.2,43.4,30.07,NNE,19,4.0,4.0,72,0.00,,,0.00,466,Wunderground v.1.15,2013-05-06 13:52:00,
2013-05-06 08:57:00,52.3,43.5,30.07,NNW,348,6.0,8.0,72,0.00,,,0.00,464,Wunderground v.1.15,2013-05-06 13:57:00,
2013-05-06 09:02:00,52.4,43.3,30.07,North,5,1.0,7.0,71,0.00,,,0.00,526,Wunderground v.1.15,2013-05-06 14:02:00,
2013-05-06 09:07:00,53.0,43.8,30.07,North,10,3.0,7.0,71,0.00,,,0.00,550,Wunderground v.1.15,2013-05-06 14:07:00,
2013-05-06 09:12:00,53.3,44.1,30.07,North,5,1.0,5.0,71,0.00,,,0.00,554,Wunderground v.1.15,2013-05-06 14:12:00,
2013-05-06 09:17:00,53.6,44.0,30.07,NNW,342,0.0,7.0,70,0.00,,,0.00,563,Wunderground v.1.15,2013-05-06 14:17:00,
2013-05-06 09:22:00,54.1,44.5,30.06,North,11,2.0,6.0,70,0.00,,,0.00,571,Wunderground v.1.15,2013-05-06 14:22:00,
2013-05-06 09:28:00,54.4,44.4,30.06,North,5,6.0,6.0,69,0.00,,,0.00,585,Wunderground v.1.15,2013-05-06 14:28:00,
2013-05-06 09:33:00,54.7,44.7,30.06,North,9,4.0,6.0,69,0.00,,,0.00,594,Wunderground v.1.15,2013-05-06 14:33:00,
2013-05-06 09:38:00,55.2,44.8,30.06,North,9,0.0,6.0,68,0.00,,,0.00,633,Wunderground v.1.15,2013-05-06 14:38:00,
2013-05-06 09:43:00,55.6,44.8,30.06,NNE,15,1.0,4.0,67,0.00,,,0.00,645,Wunderground v.1.15,2013-05-06 14:43:00,
2013-05-06 09:48:00,56.1,45.3,30.06,NNE,15,2.0,4.0,67,0.00,,,0.00,649,Wunderground v.1.15,2013-05-06 14:48:00,
2013-05-06 09:53:00,56.5,45.3,30.06,North,5,3.0,5.0,66,0.00,,,0.00,671,Wunderground v.1.15,2013-05-06 14:53:00,
2013-05-06 09:58:00,56.9,45.7,30.06,North,5,0.0,5.0,66,0.00,,,0.00,680,Wunderground v.1.15,2013-05-06 14:58:00,
2013-05-06 10:03:00,57.3,45.2,30.06,North,355,5.0,5.0,64,0.00,,,0.00,700,Wunderground v.1.15,2013-05-06 15:03:00,
2013-05-06 10:08:00,57.8,45.7,30.06,North,350,0.0,6.0,64,0.00,,,0.00,710,Wunderground v.1.15,2013-05-06 15:08:00,
2013-05-06 10:14:00,58.4,45.8,30.06,North,355,6.0,6.0,63,0.00,,,0.00,717,Wunderground v.1.15,2013-05-06 15:14:00,
2013-05-06 10:19:00,58.8,45.8,30.06,NNE,12,0.0,6.0,62,0.00,,,0.00,731,Wunderground v.1.15,2013-05-06 15:19:00,
2013-05-06 10:24:00,59.3,45.8,30.05,NNW,344,2.0,6.0,61,0.00,,,0.00,731,Wunderground v.1.15,2013-05-06 15:24:00,
2013-05-06 10:29:00,59.6,46.1,30.05,North,355,0.0,6.0,61,0.00,,,0.00,761,Wunderground v.1.15,2013-05-06 15:29:00,
2013-05-06 10:34:00,60.1,46.2,30.05,NNW,346,0.0,6.0,60,0.00,,,0.00,784,Wunderground v.1.15,2013-05-06 15:34:00,
2013-05-06 10:39:00,60.8,46.8,30.05,NNW,348,5.0,6.0,60,0.00,,,0.00,784,Wunderground v.1.15,2013-05-06 15:39:00,
2013-05-06 10:44:00,61.2,46.8,30.05,North,9,4.0,5.0,59,0.00,,,0.00,798,Wunderground v.1.15,2013-05-06 15:44:00,
2013-05-06 10:49:00,61.6,46.7,30.05,North,5,0.0,5.0,58,0.00,,,0.00,814,Wunderground v.1.15,2013-05-06 15:49:00,
2013-05-06 10:54:00,61.8,46.9,30.05,North,5,4.0,5.0,58,0.00,,,0.00,724,Wunderground v.1.15,2013-05-06 15:54:00,
2013-05-06 10:59:00,62.0,47.0,30.05,North,5,0.0,5.0,58,0.00,,,0.00,731,Wunderground v.1.15,2013-05-06 15:59:00,
2013-05-06 11:04:00,62.6,47.6,30.05,North,5,0.0,4.0,58,0.00,,,0.00,768,Wunderground v.1.15,2013-05-06 16:04:00,
2013-05-06 11:10:00,63.2,47.7,30.05,North,10,6.0,6.0,57,0.00,,,0.00,847,Wunderground v.1.15,2013-05-06 16:10:00,
2013-05-06 11:15:00,63.5,47.5,30.05,NNW,344,7.0,8.0,56,0.00,,,0.00,853,Wunderground v.1.15,2013-05-06 16:15:00,
2013-05-06 11:20:00,63.3,47.3,30.05,NNW,327,1.0,3.0,56,0.00,,,0.00,872,Wunderground v.1.15,2013-05-06 16:20:00,
2013-05-06 11:25:00,63.8,47.8,30.05,NNW,327,2.0,5.0,56,0.00,,,0.00,865,Wunderground v.1.15,2013-05-06 16:25:00,
2013-05-06 11:30:00,64.3,47.8,30.05,NNW,327,0.0,1.0,55,0.00,,,0.00,893,Wunderground v.1.15,2013-05-06 16:30:00,
2013-05-06 11:35:00,64.6,48.1,30.04,NNW,347,0.0,6.0,55,0.00,,,0.00,742,Wunderground v.1.15,2013-05-06 16:35:00,
2013-05-06 11:40:00,65.0,47.9,30.05,NW,325,0.0,2.0,54,0.00,,,0.00,881,Wunderground v.1.15,2013-05-06 16:40:00,
2013-05-06 11:45:00,64.9,48.3,30.04,NNW,328,1.0,6.0,55,0.00,,,0.00,768,Wunderground v.1.15,2013-05-06 16:45:00,
2013-05-06 11:50:00,64.9,48.3,30.04,NNE,32,5.0,6.0,55,0.00,,,0.00,833,Wunderground v.1.15,2013-05-06 16:50:00,
2013-05-06 11:55:00,65.1,48.0,30.04,North,355,6.0,6.0,54,0.00,,,0.00,881,Wunderground v.1.15,2013-05-06 16:55:00,
2013-05-06 12:01:00,65.5,48.4,30.04,North,355,4.0,4.0,54,0.00,,,0.00,918,Wunderground v.1.15,2013-05-06 17:01:00,
2013-05-06 12:06:00,66.4,48.7,30.04,North,355,6.0,6.0,53,0.00,,,0.00,907,Wunderground v.1.15,2013-05-06 17:06:00,
2013-05-06 12:11:00,67.4,48.6,30.03,North,360,1.0,5.0,51,0.00,,,0.00,911,Wunderground v.1.15,2013-05-06 17:11:00,
2013-05-06 12:16:00,67.3,48.5,30.03,North,11,0.0,5.0,51,0.00,,,0.00,868,Wunderground v.1.15,2013-05-06 17:16:00,
2013-05-06 12:21:00,67.4,48.6,30.03,NNE,32,3.0,6.0,51,0.00,,,0.00,895,Wunderground v.1.15,2013-05-06 17:21:00,
2013-05-06 12:26:00,67.4,48.6,30.03,NNE,32,0.0,6.0,51,0.00,,,0.00,909,Wunderground v.1.15,2013-05-06 17:26:00,
2013-05-06 12:31:00,67.8,49.0,30.03,NNW,331,0.0,6.0,51,0.00,,,0.00,940,Wunderground v.1.15,2013-05-06 17:31:00,
2013-05-06 12:36:00,68.3,48.4,30.03,NNW,331,0.0,6.0,49,0.00,,,0.00,953,Wunderground v.1.15,2013-05-06 17:36:00,
2013-05-06 12:41:00,68.9,48.4,30.03,North,355,0.0,2.0,48,0.00,,,0.00,940,Wunderground v.1.15,2013-05-06 17:41:00,
2013-05-06 12:46:00,69.3,48.8,30.03,North,355,0.0,6.0,48,0.00,,,0.00,888,Wunderground v.1.15,2013-05-06 17:46:00,
2013-05-06 12:51:00,69.7,48.6,30.02,North,350,4.0,4.0,47,0.00,,,0.00,925,Wunderground v.1.15,2013-05-06 17:51:00,
2013-05-06 12:56:00,69.2,48.1,30.02,NNW,340,2.0,5.0,47,0.00,,,0.00,944,Wunderground v.1.15,2013-05-06 17:56:00,
2013-05-06 13:01:00,68.9,48.4,30.02,NW,313,0.0,5.0,48,0.00,,,0.00,953,Wunderground v.1.15,2013-05-06 18:01:00,
2013-05-06 13:07:00,69.4,48.3,30.02,NW,313,0.0,5.0,47,0.00,,,0.00,951,Wunderground v.1.15,2013-05-06 18:07:00,
2013-05-06 13:12:00,70.1,48.9,30.01,NNW,340,6.0,6.0,47,0.00,,,0.00,951,Wunderground v.1.15,2013-05-06 18:12:00,
2013-05-06 13:17:00,70.5,48.1,30.01,NNE,28,1.0,7.0,45,0.00,,,0.00,942,Wunderground v.1.15,2013-05-06 18:17:00,
2013-05-06 13:22:00,70.8,48.4,30.01,NNE,27,0.0,3.0,45,0.00,,,0.00,949,Wunderground v.1.15,2013-05-06 18:22:00,
2013-05-06 13:27:00,71.0,48.6,30.01,North,355,1.0,5.0,45,0.00,,,0.00,946,Wunderground v.1.15,2013-05-06 18:27:00,
2013-05-06 13:32:00,71.2,48.8,30.01,North,360,1.0,1.0,45,0.00,,,0.00,944,Wunderground v.1.15,2013-05-06 18:32:00,
2013-05-06 13:37:00,72.0,48.3,30.01,NNE,16,4.0,5.0,43,0.00,,,0.00,958,Wunderground v.1.15,2013-05-06 18:37:00,
2013-05-06 13:42:00,72.2,48.5,30.01,NE,37,4.0,8.0,43,0.00,,,0.00,935,Wunderground v.1.15,2013-05-06 18:42:00,
2013-05-06 13:47:00,72.4,48.6,30.01,East,96,6.0,8.0,43,0.00,,,0.00,956,Wunderground v.1.15,2013-05-06 18:47:00,
2013-05-06 13:52:00,72.7,48.3,30.00,ESE,102,4.0,4.0,42,0.00,,,0.00,956,Wunderground v.1.15,2013-05-06 18:52:00,
2013-05-06 13:57:00,72.8,48.4,30.00,ESE,103,2.0,6.0,42,0.00,,,0.00,944,Wunderground v.1.15,2013-05-06 18:57:00,
2013-05-06 14:03:00,73.4,48.3,30.00,SE,135,6.0,6.0,41,0.00,,,0.00,958,Wunderground v.1.15,2013-05-06 19:03:00,
2013-05-06 14:08:00,73.1,47.3,30.00,South,171,0.0,7.0,40,0.00,,,0.00,939,Wunderground v.1.15,2013-05-06 19:08:00,
2013-05-06 14:13:00,72.6,46.9,30.00,SW,214,7.0,11.0,40,0.00,,,0.00,942,Wunderground v.1.15,2013-05-06 19:13:00,
2013-05-06 14:18:00,71.5,45.9,30.00,SW,223,0.0,11.0,40,0.00,,,0.00,939,Wunderground v.1.15,2013-05-06 19:18:00,
2013-05-06 14:23:00,71.7,46.1,30.00,SW,215,3.0,7.0,40,0.00,,,0.00,939,Wunderground v.1.15,2013-05-06 19:23:00,
2013-05-06 14:28:00,72.1,45.8,30.00,SSW,207,0.0,7.0,39,0.00,,,0.00,909,Wunderground v.1.15,2013-05-06 19:28:00,
2013-05-06 14:33:00,72.8,47.1,30.00,SSW,202,4.0,4.0,40,0.00,,,0.00,918,Wunderground v.1.15,2013-05-06 19:33:00,
2013-05-06 14:38:00,73.2,46.1,29.99,WNW,283,1.0,8.0,38,0.00,,,0.00,930,Wunderground v.1.15,2013-05-06 19:38:00,
2013-05-06 14:43:00,72.7,46.3,29.99,WSW,258,3.0,12.0,39,0.00,,,0.00,921,Wunderground v.1.15,2013-05-06 19:43:00,
2013-05-06 14:48:00,72.5,46.8,29.99,WNW,300,0.0,12.0,40,0.00,,,0.00,879,Wunderground v.1.15,2013-05-06 19:48:00,
2013-05-06 14:53:00,72.9,46.5,29.98,ENE,76,2.0,4.0,39,0.00,,,0.00,879,Wunderground v.1.15,2013-05-06 19:53:00,
2013-05-06 14:58:00,72.7,46.3,29.99,ENE,78,0.0,4.0,39,0.00,,,0.00,223,Wunderground v.1.15,2013-05-06 19:58:00,
2013-05-06 15:03:00,72.6,45.5,29.98,SW,221,8.0,11.0,38,0.00,,,0.00,925,Wunderground v.1.15,2013-05-06 20:03:00,
2013-05-06 15:09:00,71.9,45.6,29.98,SW,236,4.0,11.0,39,0.00,,,0.00,190,Wunderground v.1.15,2013-05-06 20:09:00,
2013-05-06 15:14:00,71.7,45.4,29.98,SW,234,4.0,6.0,39,0.00,,,0.00,190,Wunderground v.1.15,2013-05-06 20:14:00,
2013-05-06 15:19:00,72.1,44.4,29.98,SW,219,9.0,9.0,37,0.00,,,0.00,891,Wunderground v.1.15,2013-05-06 20:19:00,
2013-05-06 15:24:00,72.9,44.4,29.98,ESE,115,0.0,7.0,36,0.00,,,0.00,884,Wunderground v.1.15,2013-05-06 20:24:00,
2013-05-06 15:29:00,73.6,44.2,29.97,SSE,155,7.0,7.0,35,0.00,,,0.00,907,Wunderground v.1.15,2013-05-06 20:29:00,
2013-05-06 15:34:00,74.1,43.9,29.97,SE,144,7.0,8.0,34,0.00,,,0.00,904,Wunderground v.1.15,2013-05-06 20:34:00,
2013-05-06 15:39:00,74.2,44.8,29.97,SE,142,2.0,8.0,35,0.00,,,0.00,882,Wunderground v.1.15,2013-05-06 20:39:00,
2013-05-06 15:44:00,73.7,44.3,29.97,WSW,239,5.0,8.0,35,0.00,,,0.00,867,Wunderground v.1.15,2013-05-06 20:44:00,
2013-05-06 15:49:00,73.9,46.0,29.97,WSW,239,0.0,8.0,37,0.00,,,0.00,888,Wunderground v.1.15,2013-05-06 20:49:00,
2013-05-06 15:54:00,74.9,44.6,29.97,South,169,0.0,6.0,34,0.00,,,0.00,884,Wunderground v.1.15,2013-05-06 20:54:00,
2013-05-06 15:59:00,75.5,45.2,29.97,NW,320,6.0,8.0,34,0.00,,,0.00,842,Wunderground v.1.15,2013-05-06 20:59:00,
2013-05-06 16:04:00,74.9,44.6,29.97,WNW,288,9.0,13.0,34,0.00,,,0.00,805,Wunderground v.1.15,2013-05-06 21:04:00,
2013-05-06 16:09:00,74.5,45.0,29.97,WSW,252,5.0,13.0,35,0.00,,,0.00,758,Wunderground v.1.15,2013-05-06 21:09:00,
2013-05-06 16:14:00,74.5,44.3,29.96,West,274,7.0,10.0,34,0.00,,,0.00,775,Wunderground v.1.15,2013-05-06 21:14:00,
2013-05-06 16:19:00,73.7,45.1,29.96,West,262,1.0,11.0,36,0.00,,,0.00,749,Wunderground v.1.15,2013-05-06 21:19:00,
2013-05-06 16:24:00,74.0,44.6,29.96,SE,126,2.0,5.0,35,0.00,,,0.00,780,Wunderground v.1.15,2013-05-06 21:24:00,
2013-05-06 16:29:00,74.9,44.6,29.96,ESE,103,0.0,1.0,34,0.00,,,0.00,768,Wunderground v.1.15,2013-05-06 21:29:00,
2013-05-06 16:35:00,74.8,44.5,29.96,East,84,0.0,4.0,34,0.00,,,0.00,770,Wunderground v.1.15,2013-05-06 21:35:00,
2013-05-06 16:40:00,75.2,44.9,29.96,NW,309,8.0,8.0,34,0.00,,,0.00,571,Wunderground v.1.15,2013-05-06 21:40:00,
2013-05-06 16:45:00,74.6,44.4,29.96,SW,229,7.0,11.0,34,0.00,,,0.00,501,Wunderground v.1.15,2013-05-06 21:45:00,
2013-05-06 16:50:00,74.1,45.4,29.96,SW,231,5.0,7.0,36,0.00,,,0.00,418,Wunderground v.1.15,2013-05-06 21:50:00,
2013-05-06 16:55:00,73.6,45.0,29.96,SW,227,3.0,11.0,36,0.00,,,0.00,406,Wunderground v.1.15,2013-05-06 21:55:00,
2013-05-06 17:00:00,73.9,45.3,29.96,WSW,238,8.0,8.0,36,0.00,,,0.00,343,Wunderground v.1.15,2013-05-06 22:00:00,
2013-05-06 17:05:00,73.6,46.4,29.96,West,265,5.0,11.0,38,0.00,,,0.00,422,Wunderground v.1.15,2013-05-06 22:05:00,
2013-05-06 17:10:00,74.0,46.1,29.96,West,263,3.0,8.0,37,0.00,,,0.00,396,Wunderground v.1.15,2013-05-06 22:10:00,
2013-05-06 17:15:00,73.6,45.0,29.96,West,266,3.0,8.0,36,0.00,,,0.00,248,Wunderground v.1.15,2013-05-06 22:15:00,
2013-05-06 17:20:00,73.4,44.8,29.95,WNW,284,5.0,7.0,36,0.00,,,0.00,425,Wunderground v.1.15,2013-05-06 22:20:00,
2013-05-06 17:25:00,73.5,44.9,29.95,West,273,6.0,7.0,36,0.00,,,0.00,376,Wunderground v.1.15,2013-05-06 22:25:00,
2013-05-06 17:30:00,73.3,44.7,29.95,West,270,0.0,4.0,36,0.00,,,0.00,341,Wunderground v.1.15,2013-05-06 22:30:00,
2013-05-06 17:35:00,73.1,44.5,29.95,WSW,246,3.0,5.0,36,0.00,,,0.00,288,Wunderground v.1.15,2013-05-06 22:35:00,
2013-05-06 17:41:00,72.9,45.1,29.95,WSW,247,0.0,4.0,37,0.00,,,0.00,237,Wunderground v.1.15,2013-05-06 22:41:00,
2013-05-06 17:46:00,73.0,45.2,29.95,WSW,247,3.0,4.0,37,0.00,,,0.00,260,Wunderground v.1.15,2013-05-06 22:46:00,
2013-05-06 17:51:00,73.3,45.4,29.96,WSW,247,1.0,3.0,37,0.00,,,0.00,306,Wunderground v.1.15,2013-05-06 22:51:00,
2013-05-06 17:56:00,73.5,45.6,29.96,WSW,254,3.0,5.0,37,0.00,,,0.00,267,Wunderground v.1.15,2013-05-06 22:56:00,
2013-05-06 18:01:00,73.5,44.9,29.96,WSW,250,3.0,3.0,36,0.00,,,0.00,271,Wunderground v.1.15,2013-05-06 23:01:00,
2013-05-06 18:06:00,73.4,44.8,29.95,WSW,249,1.0,3.0,36,0.00,,,0.00,292,Wunderground v.1.15,2013-05-06 23:06:00,
2013-05-06 18:11:00,73.4,44.8,29.95,WSW,249,0.0,4.0,36,0.00,,,0.00,276,Wunderground v.1.15,2013-05-06 23:11:00,
2013-05-06 18:16:00,73.7,45.8,29.95,West,273,5.0,8.0,37,0.00,,,0.00,255,Wunderground v.1.15,2013-05-06 23:16:00,
2013-05-06 18:21:00,73.5,44.9,29.95,West,277,6.0,9.0,36,0.00,,,0.00,246,Wunderground v.1.15,2013-05-06 23:21:00,
2013-05-06 18:26:00,73.4,44.8,29.95,WNW,286,2.0,9.0,36,0.00,,,0.00,218,Wunderground v.1.15,2013-05-06 23:26:00,
2013-05-06 18:32:00,73.5,45.6,29.95,West,275,4.0,9.0,37,0.00,,,0.00,202,Wunderground v.1.15,2013-05-06 23:32:00,
2013-05-06 18:37:00,73.1,46.0,29.95,West,274,6.0,9.0,38,0.00,,,0.00,181,Wunderground v.1.15,2013-05-06 23:37:00,
2013-05-06 18:42:00,72.6,45.5,29.95,West,263,0.0,6.0,38,0.00,,,0.00,162,Wunderground v.1.15,2013-05-06 23:42:00,
2013-05-06 18:47:00,72.5,45.4,29.95,West,263,1.0,6.0,38,0.00,,,0.00,123,Wunderground v.1.15,2013-05-06 23:47:00,
2013-05-06 18:52:00,72.4,45.4,29.95,WNW,289,8.0,8.0,38,0.00,,,0.00,118,Wunderground v.1.15,2013-05-06 23:52:00,
2013-05-06 18:57:00,72.4,45.4,29.95,WNW,289,4.0,8.0,38,0.00,,,0.00,102,Wunderground v.1.15,2013-05-06 23:57:00,
2013-05-06 19:02:00,72.4,46.0,29.95,WNW,289,0.0,6.0,39,0.00,,,0.00,90,Wunderground v.1.15,2013-05-07 00:02:00,
2013-05-06 19:08:00,72.2,45.9,29.95,WNW,289,0.0,6.0,39,0.00,,,0.00,83,Wunderground v.1.15,2013-05-07 00:08:00,
2013-05-06 19:13:00,72.0,45.7,29.95,WNW,289,1.0,2.0,39,0.00,,,0.00,76,Wunderground v.1.15,2013-05-07 00:13:00,
2013-05-06 19:18:00,71.9,45.6,29.95,WNW,288,1.0,5.0,39,0.00,,,0.00,69,Wunderground v.1.15,2013-05-07 00:18:00,
2013-05-06 19:23:00,71.7,46.1,29.95,West,276,5.0,8.0,40,0.00,,,0.00,62,Wunderground v.1.15,2013-05-07 00:23:00,
2013-05-06 19:28:00,71.4,45.8,29.95,West,276,2.0,8.0,40,0.00,,,0.00,54,Wunderground v.1.15,2013-05-07 00:28:00,
2013-05-06 19:33:00,71.2,46.3,29.95,West,276,4.0,5.0,41,0.00,,,0.00,47,Wunderground v.1.15,2013-05-07 00:33:00,
2013-05-06 19:38:00,71.0,46.1,29.95,West,276,0.0,5.0,41,0.00,,,0.00,42,Wunderground v.1.15,2013-05-07 00:38:00,
2013-05-06 19:43:00,70.9,46.7,29.95,West,276,0.0,4.0,42,0.00,,,0.00,33,Wunderground v.1.15,2013-05-07 00:43:00,
2013-05-06 19:48:00,71.0,46.1,29.95,West,276,0.0,4.0,41,0.00,,,0.00,30,Wunderground v.1.15,2013-05-07 00:48:00,
2013-05-06 19:53:00,70.9,46.0,29.95,West,276,0.0,0.0,41,0.00,,,0.00,25,Wunderground v.1.15,2013-05-07 00:53:00,
2013-05-06 19:59:00,70.7,45.8,29.95,West,276,0.0,1.0,41,0.00,,,0.00,21,Wunderground v.1.15,2013-05-07 00:59:00,
2013-05-06 20:04:00,70.6,46.4,29.95,West,276,0.0,0.0,42,0.00,,,0.00,18,Wunderground v.1.15,2013-05-07 01:04:00,
2013-05-06 20:09:00,70.4,46.2,29.95,West,276,0.0,0.0,42,0.00,,,0.00,16,Wunderground v.1.15,2013-05-07 01:09:00,
2013-05-06 20:14:00,70.3,46.1,29.95,West,276,0.0,0.0,42,0.00,,,0.00,12,Wunderground v.1.15,2013-05-07 01:14:00,
2013-05-06 20:19:00,70.1,45.9,29.95,West,276,0.0,0.0,42,0.00,,,0.00,9,Wunderground v.1.15,2013-05-07 01:19:00,
2013-05-06 20:24:00,70.0,46.5,29.95,West,276,0.0,0.0,43,0.00,,,0.00,5,Wunderground v.1.15,2013-05-07 01:24:00,
2013-05-06 20:29:00,69.8,47.5,29.95,West,276,0.0,0.0,45,0.00,,,0.00,0,Wunderground v.1.15,2013-05-07 01:29:00,
2013-05-06 20:34:00,69.5,47.8,29.95,West,276,0.0,0.0,46,0.00,,,0.00,0,Wunderground v.1.15,2013-05-07 01:34:00,
2013-05-06 20:39:00,69.0,47.4,29.95,West,276,0.0,0.0,46,0.00,,,0.00,0,Wunderground v.1.15,2013-05-07 01:39:00,
2013-05-06 20:44:00,68.4,47.4,29.95,West,276,0.0,0.0,47,0.00,,,0.00,0,Wunderground v.1.15,2013-05-07 01:44:00,
2013-05-06 20:49:00,67.8,46.8,29.95,West,276,0.0,0.0,47,0.00,,,0.00,0,Wunderground v.1.15,2013-05-07 01:49:00,
2013-05-06 20:54:00,67.1,46.7,29.95,West,276,0.0,0.0,48,0.00,,,0.00,0,Wunderground v.1.15,2013-05-07 01:54:00,
2013-05-06 20:59:00,66.6,46.8,29.95,West,276,0.0,0.0,49,0.00,,,0.00,0,Wunderground v.1.15,2013-05-07 01:59:00,
2013-05-06 21:04:00,66.2,47.5,29.96,West,276,0.0,0.0,51,0.00,,,0.00,0,Wunderground v.1.15,2013-05-07 02:04:00,
2013-05-06 21:09:00,65.7,47.6,29.95,West,276,0.0,0.0,52,0.00,,,0.00,0,Wunderground v.1.15,2013-05-07 02:09:00,
2013-05-06 21:14:00,65.2,47.1,29.95,West,276,0.0,0.0,52,0.00,,,0.00,0,Wunderground v.1.15,2013-05-07 02:14:00,
2013-05-06 21:19:00,64.8,47.3,29.96,West,276,0.0,0.0,53,0.00,,,0.00,0,Wunderground v.1.15,2013-05-07 02:19:00,
2013-05-06 21:24:00,64.4,47.4,29.96,West,276,0.0,0.0,54,0.00,,,0.00,0,Wunderground v.1.15,2013-05-07 02:24:00,
2013-05-06 21:30:00,64.3,47.3,29.96,West,276,0.0,0.0,54,0.00,,,0.00,0,Wunderground v.1.15,2013-05-07 02:30:00,
2013-05-06 21:35:00,64.0,47.5,29.96,West,276,0.0,0.0,55,0.00,,,0.00,0,Wunderground v.1.15,2013-05-07 02:35:00,
2013-05-06 21:40:00,63.8,47.3,29.96,West,276,0.0,0.0,55,0.00,,,0.00,0,Wunderground v.1.15,2013-05-07 02:40:00,
2013-05-06 21:45:00,63.6,47.6,29.96,West,276,0.0,0.0,56,0.00,,,0.00,0,Wunderground v.1.15,2013-05-07 02:45:00,
2013-05-06 21:50:00,63.4,47.4,29.96,West,276,0.0,0.0,56,0.00,,,0.00,0,Wunderground v.1.15,2013-05-07 02:50:00,
2013-05-06 21:55:00,63.1,47.6,29.96,West,276,0.0,0.0,57,0.00,,,0.00,0,Wunderground v.1.15,2013-05-07 02:55:00,
2013-05-06 22:00:00,62.8,47.8,29.96,West,276,0.0,0.0,58,0.00,,,0.00,0,Wunderground v.1.15,2013-05-07 03:00:00,
2013-05-06 22:05:00,62.6,47.6,29.96,West,276,0.0,0.0,58,0.00,,,0.00,0,Wunderground v.1.15,2013-05-07 03:05:00,
2013-05-06 22:10:00,62.4,47.9,29.96,West,276,0.0,0.0,59,0.00,,,0.00,0,Wunderground v.1.15,2013-05-07 03:10:00,
2013-05-06 22:15:00,62.3,47.8,29.97,West,276,0.0,0.0,59,0.00,,,0.00,0,Wunderground v.1.15,2013-05-07 03:15:00,
2013-05-06 22:20:00,62.1,47.6,29.96,West,276,0.0,0.0,59,0.00,,,0.00,0,Wunderground v.1.15,2013-05-07 03:20:00,
2013-05-06 22:25:00,61.9,47.9,29.97,West,276,0.0,0.0,60,0.00,,,0.00,0,Wunderground v.1.15,2013-05-07 03:25:00,
2013-05-06 22:30:00,61.7,47.7,29.97,West,276,0.0,0.0,60,0.00,,,0.00,0,Wunderground v.1.15,2013-05-07 03:30:00,
2013-05-06 22:35:00,61.6,47.6,29.97,West,276,0.0,0.0,60,0.00,,,0.00,0,Wunderground v.1.15,2013-05-07 03:35:00,
2013-05-06 22:40:00,61.5,47.5,29.97,West,276,0.0,0.0,60,0.00,,,0.00,0,Wunderground v.1.15,2013-05-07 03:40:00,
2013-05-06 22:46:00,61.4,47.8,29.97,West,276,0.0,0.0,61,0.00,,,0.00,0,Wunderground v.1.15,2013-05-07 03:46:00,
2013-05-06 22:51:00,61.3,47.7,29.97,West,276,0.0,0.0,61,0.00,,,0.00,0,Wunderground v.1.15,2013-05-07 03:51:00,
2013-05-06 22:56:00,61.2,47.6,29.97,West,276,0.0,0.0,61,0.00,,,0.00,0,Wunderground v.1.15,2013-05-07 03:56:00,
2013-05-06 23:01:00,61.1,47.5,29.97,West,276,0.0,0.0,61,0.00,,,0.00,0,Wunderground v.1.15,2013-05-07 04:01:00,
2013-05-06 23:07:00,61.0,48.3,29.97,West,276,0.0,0.0,63,0.00,,,0.00,0,Wunderground v.1.15,2013-05-07 04:07:00,
2013-05-06 23:12:00,60.7,48.9,29.97,West,276,0.0,0.0,65,0.00,,,0.00,0,Wunderground v.1.15,2013-05-07 04:12:00,
2013-05-06 23:17:00,60.5,48.7,29.97,West,276,0.0,0.0,65,0.00,,,0.00,0,Wunderground v.1.15,2013-05-07 04:17:00,
2013-05-06 23:22:00,60.3,48.5,29.97,West,276,0.0,0.0,65,0.00,,,0.00,0,Wunderground v.1.15,2013-05-07 04:22:00,
2013-05-06 23:27:00,60.1,48.3,29.97,West,276,0.0,0.0,65,0.00,,,0.00,0,Wunderground v.1.15,2013-05-07 04:27:00,
2013-05-06 23:32:00,59.9,48.1,29.97,West,276,0.0,0.0,65,0.00,,,0.00,0,Wunderground v.1.15,2013-05-07 04:32:00,
2013-05-06 23:37:00,59.8,48.4,29.97,West,276,0.0,0.0,66,0.00,,,0.00,0,Wunderground v.1.15,2013-05-07 04:37:00,
2013-05-06 23:42:00,59.6,48.2,29.97,West,276,0.0,0.0,66,0.00,,,0.00,0,Wunderground v.1.15,2013-05-07 04:42:00,
2013-05-06 23:47:00,59.5,48.1,29.97,West,276,0.0,0.0,66,0.00,,,0.00,0,Wunderground v.1.15,2013-05-07 04:47:00,
2013-05-06 23:52:00,59.4,48.0,29.97,West,276,0.0,0.0,66,0.00,,,0.00,0,Wunderground v.1.15,2013-05-07 04:52:00,
2013-05-06 23:58:00,59.4,48.0,29.97,West,276,0.0,0.0,66,0.00,,,0.00,0,Wunderground v.1.15,2013-05-07 04:58:00,